GW5333 Weather Reports


time (UTC)temp
C
wind
direction
speed
KPH
gust
KPH
rain 1hr
cm
rain 24hr
cm
rain mn
cm
humidity
%
barometer
mb
20260509043831 22 287 0.0 0.0 0.00 0.00 0.00 81 1010.7
20260509043327 22 242 0.0 0.0 0.00 0.00 0.00 80 1010.7
20260509042823 22 195 0.0 0.0 0.00 0.00 0.00 80 1010.3
20260509042319 22 152 0.0 0.0 0.00 0.00 0.00 80 1010.3
20260509041816 22 149 0.0 0.0 0.00 0.00 0.00 79 1010.7
20260509041313 22 133 0.0 0.0 0.00 0.00 0.00 78 1010.7
20260509040811 22 199 0.0 0.0 0.00 0.00 0.00 77 1010.3
20260509040308 22 114 0.0 0.0 0.00 0.00 0.00 77 1010.7
20260509035805 22 141 0.0 0.0 0.00 0.00 0.00 77 1011.4
20260509035306 22 57 0.0 0.0 0.00 0.00 0.00 77 1011.8
20260509034759 22 44 0.0 0.0 0.00 0.00 0.00 77 1011.8
20260509034257 22 65 0.0 0.0 0.00 0.00 0.00 77 1011.8
20260509033753 22 340 0.0 0.0 0.00 0.00 0.00 77 1011.8
20260509033251 22 51 0.0 0.0 0.00 0.00 0.00 77 1011.4
20260509032747 22 293 0.0 0.0 0.00 0.00 0.00 77 1011.4
20260509032244 22 150 0.0 0.0 0.00 0.00 0.00 76 1011.1
20260509031742 22 176 0.0 0.0 0.00 0.00 0.00 77 1011.1
20260509031239 22 129 0.0 0.0 0.00 0.00 0.00 77 1011.1
20260509030737 22 346 0.0 0.0 0.00 0.00 0.00 77 1011.1
20260509030235 22 168 0.0 0.0 0.00 0.00 0.00 77 1011.1
20260509025731 22 176 0.0 0.0 0.00 0.00 0.00 77 1011.1
20260509025227 22 150 0.0 0.0 0.00 0.00 0.00 77 1010.7
20260509024722 22 173 0.0 0.0 0.00 0.00 0.00 77 1010.7
20260509024218 22 160 0.0 0.0 0.00 0.00 0.00 77 1010.3
20260509023716 22 142 0.0 0.0 0.00 0.00 0.00 77 1010.0
20260509023213 22 176 0.0 0.0 0.00 0.00 0.00 76 1010.0
20260509022709 22 168 0.0 0.0 0.00 0.00 0.00 76 1010.0
20260509022207 22 133 0.0 0.0 0.00 0.00 0.00 76 1010.0
20260509021703 22 157 0.0 0.0 0.00 0.00 0.00 76 1010.0
20260509021201 22 157 0.0 0.0 0.00 0.00 0.00 76 1010.0
20260509020659 22 182 0.0 0.0 0.00 0.00 0.00 76 1009.6
20260509020155 22 181 0.0 0.0 0.00 0.00 0.00 76 1010.0
20260509015654 23 174 0.0 0.0 0.00 0.00 0.00 77 1009.6
20260509015152 23 136 0.0 0.0 0.00 0.00 0.00 76 1010.0
20260509014648 23 178 0.0 0.0 0.00 0.00 0.00 76 1009.6
20260509014144 23 180 0.0 0.0 0.00 0.00 0.00 76 1009.6
20260509013641 23 139 0.0 0.0 0.00 0.00 0.00 75 1009.6
20260509013137 23 177 0.0 0.0 0.00 0.00 0.00 75 1009.6
20260509012634 23 194 0.0 0.0 0.00 0.00 0.00 74 1009.6
20260509012131 23 188 0.0 0.0 0.00 0.00 0.00 74 1009.6
20260509011629 23 164 0.0 0.0 0.00 0.00 0.00 74 1009.6
20260509011126 23 140 0.0 0.0 0.00 0.00 0.00 74 1009.3
20260509010623 23 180 0.0 0.0 0.00 0.00 0.00 74 1009.6
20260509010120 23 151 0.0 0.0 0.00 0.00 0.00 74 1009.3
20260509005618 23 165 0.0 0.0 0.00 0.00 0.00 73 1009.3
20260509005113 23 182 0.0 0.0 0.00 0.00 0.00 73 1009.3
20260509004609 23 145 0.0 0.0 0.00 0.00 0.00 73 1009.3
20260509004107 23 136 0.0 0.0 0.00 0.00 0.00 72 1009.0
20260509003605 23 140 0.0 4.8 0.00 0.00 0.00 72 1009.0
20260509003102 23 128 0.0 0.0 0.00 0.00 0.00 72 1009.0
20260509002559 23 153 0.0 0.0 0.00 0.00 0.00 71 1009.0
20260509002057 23 169 0.0 0.0 0.00 0.00 0.00 71 1009.0
20260509001554 24 138 0.0 0.0 0.00 0.00 0.00 70 1009.0
20260509001049 24 175 0.0 0.0 0.00 0.00 0.00 70 1009.0
20260509000548 24 154 0.0 0.0 0.00 0.00 0.00 69 1009.0
20260509000044 24 178 0.0 0.0 0.00 0.00 0.00 69 1009.0
20260508235542 25 143 0.0 0.0 0.00 0.00 0.00 68 1009.3
20260508235038 25 190 0.0 0.0 0.00 0.00 0.00 69 1009.3
20260508234536 25 181 0.0 0.0 0.00 0.00 0.00 69 1009.3
20260508234032 25 172 0.0 0.0 0.00 0.00 0.00 68 1009.0
20260508233532 25 175 0.0 0.0 0.00 0.00 0.00 66 1009.3
20260508233029 25 163 0.0 0.0 0.00 0.00 0.00 67 1009.3
20260508232525 25 143 0.0 0.0 0.00 0.00 0.00 68 1009.6
20260508232022 25 169 0.0 0.0 0.00 0.00 0.00 66 1009.6
20260508231520 25 152 0.0 0.0 0.00 0.00 0.00 67 1009.3
20260508231017 25 145 0.0 0.0 0.00 0.00 0.00 67 1009.6
20260508230514 25 173 0.0 0.0 0.00 0.00 0.00 66 1009.6
20260508230010 25 145 0.0 0.0 0.00 0.00 0.00 65 1009.6
20260508225508 25 150 0.0 0.0 0.00 0.00 0.00 66 1009.3
20260508225004 25 169 0.0 0.0 0.00 0.00 0.00 66 1009.6
20260508224502 26 163 0.0 0.0 0.00 0.00 0.00 67 1009.6
20260508223959 26 165 0.0 0.0 0.00 0.00 0.00 66 1009.3
20260508223457 26 141 0.0 0.0 0.00 0.00 0.00 65 1009.6
20260508222954 26 177 0.0 0.0 0.00 0.00 0.00 66 1009.6
20260508222451 27 175 0.0 0.0 0.00 0.00 0.00 65 1009.6
20260508221947 27 126 0.0 0.0 0.00 0.00 0.00 64 1009.3
20260508221444 27 182 0.0 0.0 0.00 0.00 0.00 62 1009.6
20260508220940 27 137 0.0 0.0 0.00 0.00 0.00 62 1009.6
20260508220437 26 135 0.0 0.0 0.00 0.00 0.00 61 1009.3
20260508215933 26 154 0.0 0.0 0.00 0.00 0.00 63 1009.3
20260508215430 26 184 0.0 0.0 0.00 0.00 0.00 62 1009.3
20260508214926 26 162 0.0 0.0 0.00 0.00 0.00 60 1009.3
20260508214425 26 184 0.0 0.0 0.00 0.00 0.00 63 1009.0
20260508213920 26 176 0.0 0.0 0.00 0.00 0.00 62 1009.3
20260508213418 26 141 0.0 0.0 0.00 0.00 0.00 63 1009.3
20260508212913 26 148 0.0 0.0 0.00 0.00 0.00 63 1009.3
20260508212410 25 152 0.0 0.0 0.00 0.00 0.00 61 1009.6
20260508211906 25 166 0.0 0.0 0.00 0.00 0.00 62 1009.6
20260508211401 25 149 0.0 0.0 0.00 0.00 0.00 62 1010.0
20260508210859 25 145 0.0 0.0 0.00 0.00 0.00 63 1010.0
20260508210355 25 156 0.0 0.0 0.00 0.00 0.00 65 1010.3
20260508205852 25 197 0.0 0.0 0.00 0.00 0.00 66 1010.7
20260508205349 25 168 0.0 0.0 0.00 0.00 0.00 65 1011.1
20260508204845 25 263 0.0 0.0 0.00 0.00 0.00 65 1011.1
20260508204342 25 126 0.0 0.0 0.00 0.00 0.00 64 1011.4
20260508203838 26 170 0.0 0.0 0.00 0.00 0.00 64 1011.4
20260508203334 26 197 0.0 0.0 0.00 0.00 0.00 63 1011.4
20260508202830 26 134 0.0 0.0 0.00 0.00 0.00 63 1011.1
20260508202328 27 149 0.0 0.0 0.00 0.00 0.00 62 1011.4
20260508201825 27 133 0.0 0.0 0.00 0.00 0.00 61 1011.4
20260508201322 27 171 0.0 0.0 0.00 0.00 0.00 60 1011.4
20260508200813 27 185 0.0 0.0 0.00 0.00 0.00 60 1011.4
20260508200309 27 161 0.0 0.0 0.00 0.00 0.00 57 1011.4
20260508195806 27 142 0.0 0.0 0.00 0.00 0.00 58 1011.4
20260508195305 27 144 0.0 0.0 0.00 0.00 0.00 59 1011.4
20260508194758 26 167 0.0 0.0 0.00 0.00 0.00 59 1011.4
20260508194256 26 149 0.0 0.0 0.00 0.00 0.00 59 1011.8
20260508193753 26 186 0.0 0.0 0.00 0.00 0.00 61 1011.4
20260508193250 26 151 0.0 0.0 0.00 0.00 0.00 63 1011.4
20260508192745 26 147 0.0 0.0 0.00 0.00 0.00 62 1011.8
20260508192243 26 145 0.0 4.8 0.00 0.00 0.00 59 1011.8
20260508191740 26 169 0.0 0.0 0.00 0.00 0.00 60 1011.8
20260508191237 26 165 0.0 0.0 0.00 0.00 0.00 60 1011.8
20260508190734 27 136 0.0 0.0 0.00 0.00 0.00 59 1011.8
20260508190230 27 153 0.0 0.0 0.00 0.00 0.00 58 1011.8
20260508185727 27 164 0.0 0.0 0.00 0.00 0.00 59 1011.8
20260508185225 27 112 0.0 0.0 0.00 0.00 0.00 59 1011.8
20260508184721 27 178 0.0 0.0 0.00 0.00 0.00 57 1011.8
20260508184218 26 117 0.0 0.0 0.00 0.00 0.00 54 1011.8
20260508183715 26 151 0.0 0.0 0.00 0.00 0.00 54 1012.1
20260508183211 26 167 0.0 0.0 0.00 0.00 0.00 55 1012.1
20260508182707 26 166 0.0 0.0 0.00 0.00 0.00 59 1012.1
20260508182204 26 194 0.0 0.0 0.00 0.00 0.00 60 1012.1
20260508181700 26 156 0.0 0.0 0.00 0.00 0.00 61 1012.4
20260508181157 26 134 0.0 0.0 0.00 0.00 0.00 58 1012.4
20260508180653 26 184 0.0 0.0 0.00 0.00 0.00 57 1012.4
20260508180150 26 285 0.0 0.0 0.00 0.00 0.00 57 1012.8
20260508175647 26 146 0.0 0.0 0.00 0.00 0.00 58 1012.8
20260508175143 26 185 0.0 0.0 0.00 0.00 0.00 57 1012.8
20260508174641 25 184 0.0 0.0 0.00 0.00 0.00 57 1012.8
20260508174133 25 216 0.0 0.0 0.00 0.00 0.00 57 1012.8
20260508173629 25 142 0.0 0.0 0.00 0.00 0.00 59 1012.8
20260508173126 24 134 0.0 0.0 0.00 0.00 0.00 58 1013.1
20260508172623 23 168 0.0 0.0 0.00 0.00 0.00 61 1013.1
20260508172119 23 204 0.0 0.0 0.00 0.00 0.00 62 1013.5
20260508171616 23 139 0.0 0.0 0.00 0.00 0.00 62 1013.5
20260508171113 23 170 0.0 0.0 0.00 0.00 0.00 61 1013.5
20260508170610 23 138 0.0 0.0 0.00 0.00 0.00 62 1013.5
20260508170107 23 173 0.0 0.0 0.00 0.00 0.00 64 1013.8
20260508165604 23 129 0.0 0.0 0.00 0.00 0.00 63 1014.1
20260508165101 23 126 0.0 0.0 0.00 0.00 0.00 62 1014.1
20260508164557 23 139 0.0 0.0 0.00 0.00 0.00 62 1014.1
20260508164054 23 142 0.0 0.0 0.00 0.00 0.00 62 1014.1
20260508163552 23 146 0.0 0.0 0.00 0.00 0.00 62 1014.5
20260508163048 22 155 0.0 0.0 0.00 0.00 0.00 61 1014.5
20260508162545 22 173 0.0 0.0 0.00 0.00 0.00 63 1014.5
20260508162042 22 141 0.0 0.0 0.00 0.00 0.00 64 1014.5
20260508161539 22 173 0.0 0.0 0.00 0.00 0.00 63 1014.5
20260508161037 22 175 0.0 0.0 0.00 0.00 0.00 63 1014.8
20260508160535 22 173 0.0 0.0 0.00 0.00 0.00 64 1014.8
20260508160032 21 131 0.0 0.0 0.00 0.00 0.00 64 1014.8
20260508155528 21 192 0.0 0.0 0.00 0.00 0.00 65 1014.8
20260508155025 21 157 0.0 0.0 0.00 0.00 0.00 65 1014.8
20260508154522 21 161 0.0 0.0 0.00 0.00 0.00 64 1015.1
20260508154019 21 169 0.0 0.0 0.00 0.00 0.00 65 1014.8
20260508153515 21 159 0.0 0.0 0.00 0.00 0.00 65 1015.1
20260508153012 21 159 0.0 0.0 0.00 0.00 0.00 66 1015.1
20260508152509 21 185 0.0 0.0 0.00 0.00 0.00 64 1015.1
20260508152005 21 166 0.0 0.0 0.00 0.00 0.00 64 1015.1
20260508151502 21 168 0.0 0.0 0.00 0.00 0.00 65 1015.1
20260508150958 21 156 0.0 0.0 0.00 0.00 0.00 65 1015.1
20260508150455 20 172 0.0 0.0 0.00 0.00 0.00 65 1015.1
20260508145950 20 135 0.0 0.0 0.00 0.00 0.00 63 1015.1
20260508145448 20 131 0.0 0.0 0.00 0.00 0.00 65 1015.1
20260508144944 20 165 0.0 0.0 0.00 0.00 0.00 67 1014.8
20260508144442 20 143 0.0 0.0 0.00 0.00 0.00 71 1014.8
20260508143939 20 181 0.0 0.0 0.00 0.00 0.00 71 1015.1
20260508143437 20 137 0.0 0.0 0.00 0.00 0.00 67 1015.1
20260508142933 20 179 0.0 0.0 0.00 0.00 0.00 66 1015.1
20260508142431 20 169 0.0 0.0 0.00 0.00 0.00 66 1015.1
20260508141927 20 155 0.0 0.0 0.00 0.00 0.00 67 1015.1
20260508141424 20 152 0.0 0.0 0.00 0.00 0.00 69 1015.1
20260508140921 19 142 0.0 0.0 0.00 0.00 0.00 70 1015.5
20260508140418 19 163 0.0 0.0 0.00 0.00 0.00 71 1015.1
20260508135914 18 136 0.0 0.0 0.00 0.00 0.00 72 1015.1
20260508135411 18 155 0.0 0.0 0.00 0.00 0.00 71 1015.5
20260508134907 18 144 0.0 0.0 0.00 0.00 0.00 72 1015.1
20260508134403 18 152 0.0 0.0 0.00 0.00 0.00 74 1015.5
20260508133900 18 129 0.0 0.0 0.00 0.00 0.00 74 1015.1
20260508133358 17 131 0.0 0.0 0.00 0.00 0.00 77 1015.1
20260508132854 17 158 0.0 0.0 0.00 0.00 0.00 79 1015.5
20260508132353 17 108 0.0 0.0 0.00 0.00 0.00 79 1015.5
20260508131849 17 173 0.0 0.0 0.00 0.00 0.00 80 1015.5
20260508131345 17 183 0.0 0.0 0.00 0.00 0.00 80 1015.5
20260508130841 17 136 0.0 0.0 0.00 0.00 0.00 81 1015.1
20260508130338 17 106 0.0 0.0 0.00 0.00 0.00 81 1015.8
20260508125835 17 313 0.0 0.0 0.00 0.00 0.00 81 1015.8
20260508125331 17 202 0.0 0.0 0.00 0.00 0.00 81 1015.1
20260508124829 17 113 0.0 0.0 0.00 0.00 0.00 81 1015.1
20260508124326 17 119 0.0 0.0 0.00 0.00 0.00 81 1015.8
20260508123824 17 155 0.0 0.0 0.00 0.00 0.00 81 1015.8
20260508123322 17 181 0.0 0.0 0.00 0.00 0.00 81 1015.8
20260508122818 17 173 0.0 0.0 0.00 0.00 0.00 81 1015.8
20260508122315 17 174 0.0 0.0 0.00 0.00 0.00 81 1015.5
20260508121812 17 153 0.0 0.0 0.00 0.00 0.00 82 1015.5
20260508121311 17 137 0.0 0.0 0.00 0.00 0.00 82 1015.5
20260508120808 17 127 0.0 0.0 0.00 0.00 0.00 82 1015.5
20260508120306 17 189 0.0 0.0 0.00 0.00 0.00 82 1015.8
20260508115803 17 231 0.0 0.0 0.00 0.00 0.00 82 1015.8
20260508115300 17 173 0.0 0.0 0.00 0.00 0.00 82 1015.5
20260508114757 17 149 0.0 0.0 0.00 0.00 0.00 81 1015.5
20260508114254 17 180 0.0 0.0 0.00 0.00 0.00 81 1015.8
20260508113750 17 126 0.0 0.0 0.00 0.00 0.00 81 1015.8
20260508113249 17 211 0.0 0.0 0.00 0.00 0.00 82 1015.1
20260508112744 17 152 0.0 0.0 0.00 0.00 0.00 83 1015.1
20260508112241 17 159 0.0 0.0 0.00 0.00 0.00 83 1015.1
20260508111738 17 100 0.0 0.0 0.00 0.00 0.00 83 1015.1
20260508111236 17 121 0.0 0.0 0.00 0.00 0.00 83 1015.5
20260508110732 17 355 0.0 0.0 0.00 0.00 0.00 83 1015.8
20260508110230 17 347 0.0 0.0 0.00 0.00 0.00 83 1016.2
20260508105729 17 165 0.0 0.0 0.00 0.00 0.00 83 1015.8
20260508105226 17 154 0.0 0.0 0.00 0.00 0.00 83 1015.5
20260508104724 17 54 0.0 0.0 0.00 0.00 0.00 83 1015.8
20260508104220 17 305 0.0 0.0 0.00 0.00 0.00 83 1016.6
20260508103718 17 300 0.0 0.0 0.00 0.00 0.00 82 1015.5
20260508103215 17 240 0.0 0.0 0.00 0.00 0.00 82 1015.1
20260508102712 17 233 0.0 0.0 0.00 0.00 0.00 82 1014.8
20260508102210 17 140 0.0 0.0 0.00 0.00 0.00 82 1014.8
20260508101707 17 168 0.0 0.0 0.00 0.00 0.00 81 1014.5
20260508101205 17 143 0.0 0.0 0.00 0.00 0.00 81 1014.5
20260508100702 17 159 0.0 0.0 0.00 0.00 0.00 81 1014.5
20260508100200 17 145 0.0 0.0 0.00 0.00 0.00 80 1014.8
20260508095656 17 154 0.0 0.0 0.00 0.00 0.00 80 1014.5
20260508095153 17 178 0.0 0.0 0.00 0.00 0.00 79 1014.5
20260508094650 17 149 0.0 0.0 0.00 0.00 0.00 79 1014.5
20260508094147 17 167 0.0 0.0 0.00 0.00 0.00 79 1014.8
20260508093644 17 186 0.0 0.0 0.00 0.00 0.00 81 1015.1
20260508093141 17 181 0.0 0.0 0.00 0.00 0.00 80 1014.8
20260508092638 17 167 0.0 0.0 0.00 0.00 0.00 81 1014.8
20260508092137 17 357 0.0 0.0 0.00 0.00 0.00 80 1014.5
20260508091634 17 358 0.0 0.0 0.00 0.00 0.00 80 1014.8
20260508091131 17 353 0.0 0.0 0.00 0.00 0.00 79 1014.8
20260508090629 17 345 0.0 0.0 0.00 0.00 0.00 79 1015.1
20260508090126 17 338 0.0 0.0 0.00 0.00 0.00 79 1015.1
20260508085622 17 246 0.0 0.0 0.00 0.00 0.00 79 1015.1
20260508085119 17 227 0.0 0.0 0.00 0.00 0.00 79 1015.1
20260508084615 17 175 0.0 0.0 0.00 0.00 0.00 79 1015.1
20260508084113 17 173 0.0 0.0 0.00 0.00 0.00 79 1014.5
20260508083610 17 156 0.0 0.0 0.00 0.00 0.00 80 1014.8
20260508083107 17 167 0.0 0.0 0.00 0.00 0.00 80 1015.5
20260508082603 17 149 0.0 0.0 0.00 0.00 0.00 80 1015.5
20260508082100 17 173 0.0 0.0 0.00 0.00 0.00 80 1015.5
20260508081558 17 176 0.0 0.0 0.00 0.00 0.00 81 1015.5
20260508081053 17 102 0.0 0.0 0.00 0.00 0.00 81 1015.5
20260508080552 17 76 0.0 0.0 0.00 0.00 0.00 81 1016.2
20260508080049 17 275 0.0 0.0 0.00 0.00 0.00 80 1016.2
20260508075545 17 252 0.0 0.0 0.00 0.00 0.00 80 1016.9
20260508075043 17 289 0.0 0.0 0.00 0.00 0.00 80 1016.6
20260508074540 17 302 0.0 0.0 0.00 0.00 0.00 80 1016.6
20260508074037 17 313 0.0 0.0 0.00 0.00 0.00 80 1016.2
20260508073534 17 121 0.0 0.0 0.00 0.00 0.00 80 1015.8
20260508073032 17 105 0.0 0.0 0.00 0.00 0.00 80 1015.5
20260508072527 17 65 0.0 0.0 0.00 0.00 0.00 80 1015.8
20260508072025 17 129 0.0 0.0 0.00 0.00 0.00 79 1015.8
20260508071523 17 133 0.0 0.0 0.00 0.00 0.00 79 1015.8
20260508071020 17 107 0.0 0.0 0.00 0.00 0.00 79 1016.2
20260508070518 17 134 0.0 0.0 0.00 0.00 0.00 79 1016.2
20260508070016 17 86 0.0 0.0 0.00 0.00 0.00 79 1015.8
20260508065513 17 94 0.0 0.0 0.00 0.00 0.00 79 1016.2
20260508065012 17 86 0.0 0.0 0.00 0.00 0.00 79 1016.2
20260508064509 17 126 0.0 0.0 0.00 0.00 0.00 79 1016.6
20260508064006 17 128 0.0 0.0 0.00 0.00 0.00 78 1016.6
20260508063503 17 130 0.0 0.0 0.00 0.00 0.00 78 1016.6
20260508063001 17 139 0.0 0.0 0.00 0.00 0.00 78 1016.6
20260508062459 17 143 0.0 0.0 0.00 0.00 0.00 78 1016.6
20260508061955 17 148 0.0 0.0 0.00 0.00 0.00 78 1016.9
20260508061453 17 141 0.0 0.0 0.00 0.00 0.00 78 1016.6
20260508060949 17 140 0.0 0.0 0.00 0.00 0.00 77 1016.6
20260508060447 17 119 0.0 0.0 0.00 0.00 0.00 77 1016.6
20260508055943 17 109 0.0 0.0 0.00 0.00 0.00 77 1016.6
20260508055440 17 151 0.0 0.0 0.00 0.00 0.00 77 1016.9
20260508054936 17 109 0.0 0.0 0.00 0.00 0.00 77 1016.6
20260508054433 17 98 0.0 0.0 0.00 0.00 0.00 77 1016.6
20260508053930 17 104 0.0 0.0 0.00 0.00 0.00 77 1016.9
20260508053427 17 99 0.0 0.0 0.00 0.00 0.00 77 1016.6
20260508052925 17 95 0.0 0.0 0.00 0.00 0.00 76 1016.6
20260508052422 17 97 0.0 0.0 0.00 0.00 0.00 76 1016.9
20260508051918 17 101 0.0 0.0 0.00 0.00 0.00 75 1016.6
20260508051414 17 104 0.0 0.0 0.00 0.00 0.00 75 1016.9
20260508050910 17 102 0.0 0.0 0.00 0.00 0.00 75 1016.6
20260508050407 17 113 0.0 0.0 0.00 0.00 0.00 75 1016.6
20260508045903 17 107 0.0 0.0 0.00 0.00 0.00 75 1016.6
20260508045401 17 101 0.0 0.0 0.00 0.00 0.00 75 1016.6
20260508044858 17 99 0.0 0.0 0.00 0.00 0.00 75 1016.6
20260508044355 17 98 0.0 0.0 0.00 0.00 0.00 74 1016.6